Main page


Airports :

Euro, Netherlands

Oil platform

latitude: 51-59-52N, longitude: 3-16-30E, elevation: 18 m

Current weather observation

The report was made 34 minutes ago, at 06:25 UTC
Wind 7 kt from the North/Northwest, varying between West/Northwest and North/Northeast
Temperature 5°C
Humidity 87%
Pressure 1030 hPa
Visibility 10 km or more

METAR: EHSA 210625Z AUTO 34007KT 300V020 9999 ///////// 05/03 Q1030 W04/H10

Time: 07:59 (06:59 UTC)

TAF: missing

Weather observations and forecasts of more than 4000 airports (METAR and TAF reports).

The available stations are represented by yellow and red dots on the map.

Hover mouse over dot to see the name of the station.

Then click to see weather observations and forecasts.

To change the map : click on the green buttons with a black cross to zoom in, on the green button with a dash to zoom out, or on the green arrows for adjacent maps.